Torna al catalogo

STARLINK-11547

AttivoComunicazioniVLEO
NORAD 62587·PAYLOAD·🇺🇸 United States

Lanciato Jan 13, 2025 da Cape Canaveral Space Force Station

Loading…

Prossimi Passaggi (prossime 24 ore)

TLE

AggiornatoSource: CelesTrak SupGP

Epoca: Sep 15, 2026, 03:25 UTC

1 62587C 25008A   26258.14284722 -.00063850  00000+0 -49565-3 0  2589
2 62587  43.0011  64.4091 0001684 268.8627 248.7074 15.70882769    17

Traccia STARLINK-11547 in tempo reale con AllMySat

Download on the App Store